[[{"header":{"parameterUnit":"m.s-1","parameterCategory":1,"la1":30.2991,"la2":30.254,"lo1":-89.0895,"lo2":-89.0444,"dy":0.0017,"dx":0.0017,"nx":28,"ny":28,"refTime":"2025-01-20T03:00:00:Z","depth":0,"parameterNumber":2,"parameterNumberName":"U-component_of_WINDS"},"data":[0,0,0,0,0,0,0,0,0,0,0,0,0,0,0,0,0,0,0,0,0,0,0,0,0,0,0,0,0,0,0,0,0,0,0,0,0,0,0,0,0,0,0,0,0,0,0,0,0,0,0,0,0,0,0,0,0,0,3.7803,3.7804,0,3.7857,3.7858,3.7858,3.7838,3.7837,3.7835,3.7834,3.7888,3.7891,3.7893,0,0,0,0,0,0,0,0,0,0,0,0,0,3.7683,3.7685,3.7803,3.7804,3.7805,3.7857,3.7858,3.7858,3.7838,3.7837,3.7835,3.7834,3.7887,3.789,3.7894,0,0,0,0,0,0,0,0,0,0,0,0,0,3.7736,3.7686,3.7803,3.7801,3.7801,3.7857,3.7858,3.7859,3.7838,3.7837,3.7835,3.7833,3.7886,3.789,3.7894,3.7955,0,0,3.7906,3.7907,0,0,0,0,0,0,0,0,3.7733,3.774,3.78,3.7801,3.7801,3.7839,3.7835,3.7891,3.7839,3.7824,3.7834,3.7832,3.7873,3.7878,3.7892,3.7957,3.796,3.7906,3.7909,3.791,3.7911,0,0,0,0,0,0,0,3.7729,3.7738,3.7824,3.7801,3.7802,3.7797,3.7803,3.7846,3.7858,3.7825,3.7824,3.7831,3.7873,3.7889,3.7893,3.7961,3.7906,3.7909,3.7912,3.7913,3.8081,3.8083,0,0,0,0,0,0,3.7726,3.7735,3.7823,3.7826,3.7762,3.7801,3.7807,3.7829,3.7858,3.7861,3.7832,3.783,3.7883,3.7889,3.7895,3.797,3.791,3.7914,3.7916,3.8079,3.8081,3.8084,0,0,0,0,0,0,3.7723,3.7734,3.7821,3.778,3.7791,3.7805,3.783,3.7831,3.7846,3.7863,3.7865,3.7846,3.7882,3.789,3.7941,3.7971,3.7916,3.7919,3.8076,3.808,3.8083,3.8119,0,0,0,0,0,0,3.772,3.7733,3.7756,3.7781,3.7793,3.7865,3.7831,3.7833,3.7853,3.785,3.7876,3.7879,3.7881,3.7935,3.7945,3.7976,3.7922,3.8074,3.8078,3.8082,3.8115,3.8123,3.8129,0,0,0,0,0,3.7715,3.7763,3.7757,3.7768,3.7822,3.7867,3.7874,3.7876,3.7855,3.7879,3.789,3.7878,3.7967,3.7941,3.7951,3.7984,3.8072,3.8077,3.8081,3.8111,3.8121,3.8129,0,0,0,0,0,0,3.774,3.7766,3.776,3.7817,3.784,3.7863,3.7893,3.7886,3.7914,3.791,3.7911,3.7917,3.797,3.7982,3.7953,3.8045,3.8016,3.8023,3.8035,3.8045,3.8052,3.8048,3.7925,0,0,0,0,0,3.7752,3.7786,3.7807,3.7856,3.7868,3.7879,3.7898,3.7898,3.7921,3.7931,3.7946,3.7969,3.8003,3.8024,3.8056,3.8117,3.8123,3.8145,3.8152,3.8158,3.8164,3.8199,3.8209,3.8099,3.8099,3.8099,0,0,3.7777,3.7796,3.7817,3.7861,3.7879,3.7915,3.7887,3.7925,3.7952,3.7937,3.7986,3.7998,3.8025,3.8082,3.8107,3.8093,3.8196,3.8164,3.8169,3.8171,3.8205,3.8215,3.8224,3.8103,3.8102,3.8102,0,0,3.7841,3.7859,3.7902,3.7921,3.7949,3.7956,3.7967,3.7992,3.8,3.805,3.8039,3.8071,3.8128,3.8148,3.8166,3.8241,3.8231,3.8251,3.8289,3.8323,3.8331,3.8339,3.8366,3.8376,3.8257,3.8257,3.8257,0,3.7869,3.7922,3.7924,3.7965,3.7985,3.7974,3.8018,3.8036,3.8073,3.8087,3.8071,3.8144,3.8161,3.8223,3.8242,3.8256,3.8269,3.8247,3.833,3.8338,3.8345,3.8371,3.8381,3.8259,3.8259,3.8259,3.8259,0,3.7955,3.7993,3.8024,3.8061,3.8085,3.8127,3.8136,3.816,3.8159,3.8168,3.822,3.824,3.8277,3.8291,3.8289,3.8354,3.8345,3.8329,3.83,3.8358,3.8382,3.8392,3.8263,3.8262,3.8261,3.8261,0,0,3.8034,3.8074,3.8086,3.8103,3.8134,3.8163,3.8206,3.8242,3.8263,3.8289,3.8325,3.8375,3.8362,3.8382,3.8383,3.8413,3.8472,3.8394,3.8395,3.8408,3.8546,3.8557,3.8569,3.8466,3.8468,3.847,3.8544,0,3.8101,3.8176,3.818,3.8247,3.8283,3.8275,3.8311,3.8335,3.8346,3.8377,3.8389,3.8425,3.8404,3.8416,3.8446,3.8459,3.85,3.8453,3.85,3.8501,3.8493,3.8581,3.8593,3.8662,3.8554,3.8555,3.8556,0,3.8189,3.8219,3.8291,3.8319,3.8334,3.8367,3.8402,3.8432,3.846,3.8465,3.8489,3.8486,3.8531,3.8501,3.8562,3.853,3.855,3.8559,3.8562,3.8566,3.8532,3.8588,3.8684,3.8694,3.8571,3.857,3.8569,0,3.824,3.8299,3.835,3.8365,3.8399,3.8423,3.8438,3.8464,3.8486,3.8517,3.8531,3.8567,3.8586,3.8614,3.8621,3.8598,3.8682,3.8652,3.8689,3.8689,3.8706,3.8705,3.8806,3.8719,3.8719,3.8719,3.8718,0,3.8315,3.8359,3.8374,3.8405,3.8455,3.846,3.8509,3.8523,3.8546,3.858,3.8575,3.8607,3.8615,3.8649,3.8655,3.8706,3.8714,3.872,3.8721,3.8721,3.872,3.8733,3.8728,3.8721,3.8721,3.872,3.872,0,3.838,3.8392,3.8447,3.8475,3.8484,3.8519,3.8544,3.8574,3.8585,3.8628,3.8639,3.8656,3.8696,3.8706,3.8753,3.8757,3.8818,3.8814,3.8808,3.8808,3.8844,3.8841,3.8957,3.8973,3.8875,3.8876,3.8877,0,3.8426,3.846,3.8493,3.8516,3.8533,3.857,3.8593,3.86,3.8625,3.866,3.8687,3.8726,3.8758,3.8823,3.8839,3.8876,3.8873,3.8912,3.8879,3.8878,3.8875,3.8872,3.8876,3.8918,3.8919,3.892,3.892,0,3.8508,3.8513,3.8547,3.8584,3.8612,3.8641,3.8669,3.8688,3.8699,3.8727,3.8769,3.8794,3.8843,3.8883,3.8921,3.8937,3.8931,3.8931,3.8942,3.8941,3.8937,3.894,3.8826,3.8928,3.8927,3.8927,3.8926,3.8926,3.8566,3.8596,3.8625,3.8663,3.8685,3.8712,3.8743,3.8758,3.8793,3.8834,3.8837,3.8882,3.891,3.8961,3.8979,3.9015,3.9003,3.9018,3.9022,3.9025,3.9029,3.8932,3.9022,3.9022,3.9021,3.9021,3.9021,0,3.8647,3.8666,3.8702,3.8741,3.8772,3.8765,3.8796,3.8823,3.8863,3.889,3.8922,3.8971,3.901,3.9031,3.907,3.9095,3.9093,3.9105,3.9103,3.9107,3.9037,3.9024,3.9106,3.9105,3.9105,3.9105,3.9105,3.9105,3.8694,3.8745,3.8754,3.8817,3.8835,3.888,3.8899,3.8924,3.8946,3.9,3.9033,3.9047,3.9072,3.9114,3.915,3.9155,3.917,3.9183,3.9186,3.912,3.9112,3.9103,3.9091,3.9186,3.9186,3.9254,3.9254,3.9255]},{"header":{"parameterUnit":"m.s-1","parameterCategory":1,"la1":30.2991,"la2":30.254,"lo1":-89.0895,"lo2":-89.0444,"dy":0.0017,"dx":0.0017,"nx":28,"ny":28,"refTime":"2025-01-20T03:00:00:Z","depth":0,"parameterNumber":3,"parameterNumberName":"V-component_of_WINDS"},"data":[0,0,0,0,0,0,0,0,0,0,0,0,0,0,0,0,0,0,0,0,0,0,0,0,0,0,0,0,0,0,0,0,0,0,0,0,0,0,0,0,0,0,0,0,0,0,0,0,0,0,0,0,0,0,0,0,0,0,-7.9668,-7.9669,0,-7.9813,-7.9815,-7.9817,-7.9782,-7.9779,-7.9776,-7.9773,-7.9917,-7.9923,-7.993,0,0,0,0,0,0,0,0,0,0,0,0,0,-7.9357,-7.9363,-7.9668,-7.9669,-7.9671,-7.9813,-7.9815,-7.9817,-7.9782,-7.9779,-7.9775,-7.9772,-7.9915,-7.9923,-7.993,0,0,0,0,0,0,0,0,0,0,0,0,0,-7.9496,-7.9364,-7.9667,-7.9671,-7.9673,-7.9813,-7.9815,-7.9818,-7.9783,-7.9779,-7.9774,-7.977,-7.9913,-7.9922,-7.9932,-8.0075,0,0,-7.9961,-7.9965,0,0,0,0,0,0,0,0,-7.9488,-7.9507,-7.9669,-7.9671,-7.9673,-7.9775,-7.9758,-7.9904,-7.9784,-7.9741,-7.9773,-7.9768,-7.9873,-7.9886,-7.9922,-8.0082,-8.0088,-7.9962,-7.9968,-7.9972,-7.9975,0,0,0,0,0,0,0,-7.9478,-7.9501,-7.9725,-7.9671,-7.9674,-7.9665,-7.968,-7.9786,-7.9828,-7.9744,-7.9742,-7.976,-7.9873,-7.9913,-7.9925,-8.009,-7.9962,-7.997,-7.9976,-7.998,-8.0377,-8.0382,0,0,0,0,0,0,-7.9467,-7.9493,-7.972,-7.9729,-7.9569,-7.9674,-7.9691,-7.9747,-7.9827,-7.9836,-7.9764,-7.9758,-7.9898,-7.9914,-7.993,-8.0105,-7.9972,-7.9981,-7.9986,-8.0373,-8.0379,-8.0384,0,0,0,0,0,0,-7.9461,-7.9488,-7.9715,-7.9611,-7.9639,-7.9683,-7.9747,-7.9752,-7.9791,-7.9842,-7.9849,-7.9796,-7.9896,-7.9916,-8.004,-8.011,-7.9985,-7.9994,-8.0367,-8.0375,-8.0381,-8.0456,0,0,0,0,0,0,-7.9452,-7.9486,-7.9541,-7.9612,-7.9645,-7.9824,-7.9751,-7.9758,-7.9808,-7.9802,-7.9874,-7.9882,-7.9894,-8.0026,-8.005,-8.0121,-8.0002,-8.0361,-8.037,-8.0379,-8.0447,-8.0465,-8.0479,0,0,0,0,0,-7.9441,-7.9555,-7.9544,-7.9572,-7.9715,-7.9828,-7.9846,-7.9859,-7.9814,-7.987,-7.9903,-7.988,-8.0098,-8.0039,-8.0065,-8.014,-8.0357,-8.0368,-8.0378,-8.044,-8.0461,-8.0479,0,0,0,0,0,0,-7.9488,-7.9564,-7.9553,-7.9693,-7.9755,-7.9821,-7.9892,-7.988,-7.9954,-7.9945,-7.9956,-7.9973,-8.0099,-8.0132,-8.0065,-8.0285,-8.0221,-8.0237,-8.0259,-8.028,-8.0295,-8.0285,-8.001,0,0,0,0,0,-7.9515,-7.9601,-7.9662,-7.978,-7.9812,-7.9847,-7.9896,-7.9902,-7.9964,-7.9989,-8.0031,-8.0092,-8.0175,-8.0229,-8.0307,-8.0452,-8.0468,-8.0517,-8.0533,-8.0546,-8.056,-8.0641,-8.0664,-8.0419,-8.0419,-8.0419,0,0,-7.9571,-7.9623,-7.9677,-7.9791,-7.9839,-7.9928,-7.9869,-7.9964,-8.003,-8.0003,-8.0124,-8.0157,-8.0226,-8.0361,-8.0423,-8.0392,-8.0631,-8.0559,-8.0569,-8.0577,-8.0654,-8.0677,-8.0698,-8.0426,-8.0425,-8.0424,0,0,-7.9719,-7.9767,-7.9872,-7.9922,-7.9996,-8.002,-8.0045,-8.0115,-8.0136,-8.0258,-8.0241,-8.0318,-8.046,-8.051,-8.0554,-8.0725,-8.0707,-8.075,-8.0834,-8.0913,-8.0932,-8.0949,-8.1012,-8.1034,-8.0764,-8.0764,-8.0764,0,-7.9779,-7.9913,-7.9926,-8.0025,-8.0077,-8.0059,-8.0166,-8.0213,-8.0308,-8.0344,-8.0309,-8.0489,-8.0533,-8.0682,-8.0724,-8.0759,-8.0789,-8.0742,-8.0929,-8.0946,-8.0962,-8.1022,-8.1045,-8.0769,-8.0769,-8.0768,-8.0768,0,-7.9984,-8.0077,-8.0153,-8.0249,-8.0308,-8.041,-8.0439,-8.0498,-8.0498,-8.0525,-8.065,-8.0704,-8.0794,-8.083,-8.0829,-8.0979,-8.0958,-8.0926,-8.0862,-8.099,-8.1046,-8.1069,-8.0776,-8.0774,-8.0773,-8.0772,0,0,-8.0164,-8.0268,-8.0296,-8.0341,-8.0423,-8.0495,-8.0596,-8.0687,-8.0738,-8.0805,-8.089,-8.1012,-8.0984,-8.1034,-8.104,-8.1109,-8.1243,-8.1069,-8.1071,-8.1101,-8.1413,-8.1438,-8.1464,-8.1232,-8.1236,-8.124,-8.1408,0,-8.032,-8.0501,-8.0517,-8.0679,-8.0767,-8.0753,-8.0841,-8.0901,-8.093,-8.1007,-8.1037,-8.1124,-8.108,-8.111,-8.1178,-8.1213,-8.1306,-8.1201,-8.1312,-8.1315,-8.1296,-8.1493,-8.1518,-8.1674,-8.143,-8.1433,-8.1436,0,-8.0526,-8.0603,-8.0774,-8.0847,-8.0884,-8.0964,-8.105,-8.1124,-8.1192,-8.1208,-8.1266,-8.1263,-8.1367,-8.13,-8.1444,-8.1372,-8.1418,-8.1442,-8.1449,-8.146,-8.1384,-8.151,-8.1724,-8.1748,-8.147,-8.1468,-8.1465,0,-8.0642,-8.0787,-8.091,-8.0948,-8.1035,-8.1092,-8.1131,-8.1195,-8.1249,-8.1324,-8.136,-8.1444,-8.1491,-8.1557,-8.1577,-8.1526,-8.1721,-8.1655,-8.1737,-8.1737,-8.1779,-8.1776,-8.2005,-8.1808,-8.1807,-8.1807,-8.1806,0,-8.0815,-8.0921,-8.0964,-8.1039,-8.1157,-8.1175,-8.1292,-8.1327,-8.1385,-8.1467,-8.1459,-8.1535,-8.1557,-8.1638,-8.1654,-8.1772,-8.1792,-8.1808,-8.1811,-8.181,-8.1808,-8.184,-8.183,-8.1813,-8.1812,-8.1811,-8.181,0,-8.0965,-8.0997,-8.113,-8.1204,-8.1225,-8.1309,-8.1371,-8.1444,-8.1471,-8.1575,-8.16,-8.1644,-8.1738,-8.1766,-8.1878,-8.1889,-8.2028,-8.2021,-8.2006,-8.2006,-8.2088,-8.208,-8.2345,-8.2382,-8.216,-8.2162,-8.2164,0,-8.1074,-8.1155,-8.1239,-8.1294,-8.1336,-8.1425,-8.1481,-8.1502,-8.1561,-8.1647,-8.1709,-8.1803,-8.188,-8.2031,-8.2072,-8.2159,-8.2154,-8.2241,-8.2167,-8.2163,-8.2157,-8.2152,-8.2161,-8.2255,-8.2257,-8.2259,-8.2261,0,-8.1264,-8.1277,-8.136,-8.145,-8.1518,-8.1589,-8.1657,-8.1702,-8.1733,-8.18,-8.1898,-8.1958,-8.2075,-8.2168,-8.2257,-8.2295,-8.2284,-8.2284,-8.2308,-8.2307,-8.2296,-8.2305,-8.2046,-8.2278,-8.2276,-8.2275,-8.2274,-8.2273,-8.1397,-8.147,-8.1542,-8.1635,-8.1689,-8.1753,-8.1826,-8.1865,-8.1948,-8.2046,-8.2053,-8.216,-8.2227,-8.2345,-8.2389,-8.2472,-8.2446,-8.2481,-8.2489,-8.2498,-8.2506,-8.2283,-8.2488,-8.2488,-8.2487,-8.2487,-8.2487,0,-8.1588,-8.1634,-8.172,-8.1817,-8.1891,-8.1876,-8.1951,-8.2014,-8.2108,-8.2173,-8.225,-8.2364,-8.2455,-8.2505,-8.2596,-8.2653,-8.265,-8.2676,-8.2672,-8.2682,-8.2523,-8.2494,-8.2677,-8.2677,-8.2677,-8.2677,-8.2677,-8.2677,-8.1697,-8.182,-8.1842,-8.1993,-8.2037,-8.2144,-8.2189,-8.2248,-8.2301,-8.2429,-8.2506,-8.2538,-8.2598,-8.2693,-8.2777,-8.2789,-8.2823,-8.2853,-8.2862,-8.2712,-8.2693,-8.2674,-8.2647,-8.286,-8.286,-8.3014,-8.3016,-8.3017]}]]